| time (UTC) | temp F | wind direction | speed MPH | gust MPH | rain 1hr in | rain 24hr in | rain mn in | humidity % | barometer mb |
| 20260903011553 | 58 | 215 | 0.0 | 0.0 | 0.00 | 0.01 | 0.00 | 84 | 1021.0 |
| 20260903010355 | 59 | 0.0 | 0.0 | 0.00 | 0.01 | 0.00 | 84 | 1022.2 | |
| 20260903010052 | 58 | 215 | 0.0 | 0.0 | 0.00 | 0.01 | 0.00 | 84 | 1020.9 |
| 20260903004550 | 59 | 215 | 0.0 | 0.0 | 0.00 | 0.01 | 0.00 | 84 | 1020.8 |
| 20260903003049 | 59 | 215 | 0.0 | 0.0 | 0.00 | 0.01 | 0.00 | 85 | 1020.9 |
| 20260903001549 | 59 | 215 | 0.0 | 0.0 | 0.00 | 0.01 | 0.00 | 84 | 1020.9 |
| 20260903000326 | 59 | 0.0 | 0.0 | 0.00 | 0.01 | 0.00 | 84 | 1022.1 | |
| 20260903000050 | 59 | 215 | 0.0 | 0.0 | 0.00 | 0.01 | 0.00 | 84 | 1020.8 |
| 20260902234548 | 59 | 215 | 0.0 | 0.0 | 0.00 | 0.01 | 0.00 | 83 | 1021.0 |
| 20260902233047 | 59 | 215 | 0.0 | 0.0 | 0.00 | 0.01 | 0.00 | 83 | 1021.0 |
| 20260902231546 | 59 | 215 | 0.0 | 0.0 | 0.00 | 0.01 | 0.00 | 83 | 1021.1 |
| 20260902230417 | 60 | 0.0 | 0.0 | 0.00 | 0.01 | 0.00 | 84 | 1022.3 | |
| 20260902230045 | 59 | 215 | 0.0 | 0.0 | 0.00 | 0.01 | 0.00 | 84 | 1021.1 |
| 20260902224547 | 59 | 215 | 0.0 | 0.0 | 0.00 | 0.01 | 0.00 | 84 | 1021.0 |
| 20260902223041 | 59 | 215 | 0.0 | 0.0 | 0.00 | 0.01 | 0.00 | 83 | 1021.0 |
| 20260902221541 | 59 | 215 | 0.0 | 0.0 | 0.00 | 0.01 | 0.00 | 82 | 1021.1 |
| 20260902220328 | 60 | 0.0 | 0.0 | 0.00 | 0.01 | 0.01 | 81 | 1022.3 | |
| 20260902220040 | 59 | 215 | 0.0 | 0.0 | 0.00 | 0.01 | 0.00 | 81 | 1021.1 |
| 20260902214542 | 60 | 215 | 0.0 | 0.0 | 0.00 | 0.01 | 0.01 | 82 | 1021.1 |
| 20260902213039 | 60 | 215 | 0.0 | 0.0 | 0.00 | 0.01 | 0.01 | 82 | 1021.1 |
| 20260902211538 | 60 | 215 | 0.0 | 0.0 | 0.00 | 0.01 | 0.01 | 80 | 1020.9 |
| 20260902210257 | 61 | 0.0 | 0.0 | 0.00 | 0.01 | 0.01 | 79 | 1022.0 | |
| 20260902210051 | 60 | 215 | 0.0 | 0.0 | 0.00 | 0.01 | 0.01 | 80 | 1020.9 |
| 20260902204537 | 60 | 215 | 0.0 | 0.0 | 0.00 | 0.01 | 0.01 | 79 | 1020.8 |
| 20260902203037 | 61 | 215 | 0.0 | 0.0 | 0.00 | 0.01 | 0.01 | 77 | 1020.9 |
| 20260902201539 | 62 | 215 | 0.0 | 0.0 | 0.00 | 0.01 | 0.01 | 75 | 1020.7 |
| 20260902200329 | 63 | 0.0 | 0.0 | 0.00 | 0.01 | 0.01 | 74 | 1021.5 | |
| 20260902200036 | 62 | 215 | 0.0 | 0.0 | 0.00 | 0.01 | 0.01 | 75 | 1020.6 |
| 20260902194539 | 63 | 215 | 0.0 | 0.0 | 0.00 | 0.01 | 0.01 | 74 | 1020.5 |
| 20260902193037 | 64 | 215 | 0.0 | 0.0 | 0.00 | 0.01 | 0.01 | 71 | 1020.5 |
| 20260902191536 | 64 | 215 | 0.0 | 0.0 | 0.00 | 0.01 | 0.01 | 71 | 1020.3 |
| 20260902190257 | 66 | 0.0 | 0.0 | 0.00 | 0.01 | 0.01 | 68 | 1020.8 | |
| 20260902190034 | 66 | 215 | 0.0 | 1.0 | 0.00 | 0.01 | 0.01 | 69 | 1020.2 |
| 20260902184533 | 66 | 215 | 0.0 | 0.0 | 0.00 | 0.01 | 0.01 | 67 | 1020.0 |
| 20260902183033 | 67 | 215 | 0.0 | 0.0 | 0.00 | 0.01 | 0.01 | 65 | 1019.8 |
| 20260902181532 | 67 | 215 | 0.0 | 0.0 | 0.00 | 0.01 | 0.01 | 65 | 1019.6 |
| 20260902180330 | 69 | 0.0 | 0.0 | 0.00 | 0.01 | 0.01 | 64 | 1020.1 | |
| 20260902180031 | 68 | 215 | 0.0 | 0.0 | 0.00 | 0.01 | 0.01 | 64 | 1019.6 |
| 20260902174531 | 68 | 215 | 0.0 | 0.0 | 0.00 | 0.01 | 0.01 | 64 | 1019.4 |
| 20260902173035 | 68 | 215 | 0.0 | 3.0 | 0.00 | 0.01 | 0.01 | 67 | 1019.3 |
| 20260902171529 | 70 | 215 | 0.0 | 3.0 | 0.00 | 0.01 | 0.01 | 66 | 1019.1 |
| 20260902170256 | 71 | 0.0 | 0.0 | 0.00 | 0.01 | 0.01 | 65 | 1020.2 | |
| 20260902170029 | 71 | 214 | 0.0 | 2.0 | 0.00 | 0.01 | 0.01 | 64 | 1019.2 |
| 20260902164533 | 71 | 213 | 0.0 | 4.0 | 0.00 | 0.01 | 0.01 | 65 | 1019.3 |
| 20260902163029 | 72 | 274 | 0.0 | 2.0 | 0.00 | 0.01 | 0.01 | 63 | 1019.3 |
| 20260902161527 | 72 | 273 | 1.0 | 3.0 | 0.00 | 0.01 | 0.01 | 61 | 1019.3 |
| 20260902160328 | 73 | 203 | 2.0 | 4.0 | 0.00 | 0.01 | 0.01 | 61 | 1020.4 |
| 20260902160025 | 72 | 205 | 2.0 | 5.0 | 0.00 | 0.01 | 0.01 | 61 | 1019.5 |
| 20260902154526 | 73 | 265 | 0.0 | 8.0 | 0.00 | 0.01 | 0.01 | 60 | 1019.4 |
| 20260902153027 | 73 | 211 | 2.0 | 5.0 | 0.00 | 0.01 | 0.01 | 58 | 1019.5 |
| 20260902151522 | 73 | 203 | 1.0 | 7.0 | 0.00 | 0.01 | 0.01 | 60 | 1019.5 |
| 20260902150257 | 75 | 0.0 | 0.0 | 0.00 | 0.01 | 0.01 | 59 | 1020.7 | |
| 20260902150022 | 75 | 209 | 1.0 | 5.0 | 0.00 | 0.01 | 0.01 | 58 | 1019.6 |
| 20260902144532 | 74 | 246 | 0.0 | 4.0 | 0.00 | 0.01 | 0.01 | 60 | 1019.6 |
| 20260902143021 | 73 | 257 | 2.0 | 8.0 | 0.00 | 0.01 | 0.01 | 60 | 1019.7 |
| 20260902141520 | 74 | 246 | 0.0 | 7.0 | 0.00 | 0.01 | 0.01 | 61 | 1019.9 |
| 20260902140329 | 76 | 225 | 1.0 | 4.0 | 0.00 | 0.01 | 0.01 | 54 | 1021.1 |
| 20260902140023 | 75 | 208 | 2.0 | 9.0 | 0.00 | 0.01 | 0.01 | 57 | 1020.0 |
| 20260902134517 | 76 | 213 | 4.0 | 12.0 | 0.00 | 0.01 | 0.01 | 56 | 1020.0 |
| 20260902133015 | 76 | 209 | 0.0 | 8.0 | 0.00 | 0.01 | 0.01 | 59 | 1020.0 |
| 20260902131519 | 76 | 217 | 6.0 | 10.0 | 0.00 | 0.01 | 0.01 | 56 | 1020.1 |
| 20260902130413 | 76 | 203 | 7.0 | 9.0 | 0.00 | 0.01 | 0.01 | 57 | 1021.4 |
| 20260902130115 | 76 | 229 | 6.0 | 10.0 | 0.00 | 0.01 | 0.01 | 57 | 1020.2 |
| 20260902124509 | 76 | 218 | 2.0 | 11.0 | 0.00 | 0.01 | 0.01 | 57 | 1020.1 |
| 20260902123007 | 75 | 265 | 1.0 | 6.0 | 0.00 | 0.01 | 0.01 | 61 | 1020.4 |
| 20260902121504 | 74 | 222 | 3.0 | 7.0 | 0.00 | 0.01 | 0.01 | 62 | 1020.6 |
| 20260902120301 | 74 | 203 | 4.0 | 6.0 | 0.00 | 0.01 | 0.01 | 63 | 1022.2 |
| 20260902120002 | 73 | 238 | 0.0 | 8.0 | 0.00 | 0.01 | 0.01 | 63 | 1020.9 |
| 20260902114602 | 72 | 197 | 0.0 | 7.0 | 0.00 | 0.01 | 0.01 | 66 | 1021.1 |
| 20260902113100 | 71 | 213 | 1.0 | 7.0 | 0.00 | 0.01 | 0.01 | 65 | 1021.1 |
| 20260902111553 | 70 | 254 | 1.0 | 6.0 | 0.00 | 0.01 | 0.01 | 67 | 1021.3 |
| 20260902110231 | 71 | 203 | 2.0 | 3.0 | 0.00 | 0.01 | 0.01 | 67 | 1022.6 |
| 20260902110053 | 70 | 204 | 2.0 | 5.0 | 0.00 | 0.01 | 0.01 | 66 | 1021.4 |
| 20260902104556 | 71 | 192 | 2.0 | 6.0 | 0.00 | 0.01 | 0.01 | 67 | 1021.4 |
| 20260902103101 | 72 | 171 | 1.0 | 6.0 | 0.00 | 0.01 | 0.01 | 66 | 1021.5 |
| 20260902101549 | 71 | 217 | 2.0 | 6.0 | 0.00 | 0.01 | 0.01 | 66 | 1021.7 |
| 20260902100203 | 70 | 0.0 | 0.0 | 0.00 | 0.01 | 0.01 | 69 | 1022.9 | |
| 20260902094543 | 69 | 209 | 0.0 | 0.0 | 0.00 | 0.01 | 0.01 | 67 | 1021.8 |
| 20260902093044 | 69 | 207 | 0.0 | 0.0 | 0.00 | 0.01 | 0.01 | 68 | 1022.0 |
| 20260902091600 | 68 | 213 | 0.0 | 0.0 | 0.00 | 0.01 | 0.01 | 70 | 1022.0 |
| 20260902090255 | 66 | 0.0 | 0.0 | 0.00 | 0.01 | 0.01 | 75 | 1023.0 | |
| 20260902090036 | 67 | 213 | 0.0 | 0.0 | 0.00 | 0.01 | 0.01 | 74 | 1022.1 |
| 20260902084540 | 65 | 198 | 0.0 | 0.0 | 0.00 | 0.01 | 0.01 | 76 | 1022.0 |
| 20260902083028 | 64 | 270 | 0.0 | 0.0 | 0.00 | 0.01 | 0.01 | 79 | 1021.9 |
| 20260902081532 | 63 | 271 | 0.0 | 0.0 | 0.00 | 0.01 | 0.01 | 81 | 1022.0 |
| 20260902080206 | 62 | 0.0 | 0.0 | 0.00 | 0.01 | 0.01 | 88 | 1022.8 | |
| 20260902080022 | 62 | 244 | 0.0 | 0.0 | 0.00 | 0.01 | 0.01 | 87 | 1021.7 |
| 20260902074517 | 61 | 269 | 0.0 | 0.0 | 0.00 | 0.01 | 0.01 | 89 | 1021.5 |
| 20260902073013 | 59 | 255 | 0.0 | 0.0 | 0.00 | 0.01 | 0.01 | 91 | 1021.7 |
| 20260902071526 | 58 | 263 | 0.0 | 0.0 | 0.00 | 0.01 | 0.01 | 92 | 1021.8 |
| 20260902070248 | 56 | 0.0 | 0.0 | 0.00 | 0.01 | 0.01 | 92 | 1022.7 | |
| 20260902070008 | 56 | 271 | 0.0 | 0.0 | 0.00 | 0.01 | 0.01 | 92 | 1021.6 |
| 20260902064503 | 54 | 360 | 0.0 | 0.0 | 0.00 | 0.01 | 0.01 | 92 | 1021.9 |
| 20260902063001 | 51 | 271 | 0.0 | 0.0 | 0.00 | 0.01 | 0.01 | 91 | 1021.9 |
| 20260902061611 | 49 | 271 | 0.0 | 0.0 | 0.00 | 0.01 | 0.01 | 90 | 1021.9 |
| 20260902060128 | 49 | 0.0 | 0.0 | 0.00 | 0.01 | 0.01 | 90 | 1022.4 | |
| 20260902060058 | 49 | 271 | 0.0 | 0.0 | 0.00 | 0.01 | 0.01 | 90 | 1022.0 |
| 20260902054556 | 48 | 271 | 0.0 | 0.0 | 0.01 | 0.01 | 0.01 | 90 | 1021.9 |
| 20260902053054 | 48 | 271 | 0.0 | 0.0 | 0.01 | 0.01 | 0.01 | 89 | 1022.0 |
| 20260902051551 | 48 | 271 | 0.0 | 0.0 | 0.01 | 0.01 | 0.01 | 89 | 1021.8 |
| 20260902050200 | 49 | 0.0 | 0.0 | 0.01 | 0.01 | 0.01 | 89 | 1022.2 | |
| 20260902050052 | 48 | 271 | 0.0 | 0.0 | 0.01 | 0.01 | 0.01 | 89 | 1021.6 |
| 20260902044549 | 48 | 271 | 0.0 | 0.0 | 0.00 | 0.00 | 0.00 | 89 | 1021.7 |
| 20260902043054 | 49 | 271 | 0.0 | 0.0 | 0.00 | 0.00 | 0.00 | 89 | 1021.5 |
| 20260902041548 | 49 | 271 | 0.0 | 0.0 | 0.00 | 0.00 | 0.00 | 89 | 1021.5 |
| 20260902040122 | 50 | 0.0 | 0.0 | 0.00 | 0.00 | 0.00 | 89 | 1022.2 | |
| 20260902040046 | 49 | 271 | 0.0 | 0.0 | 0.00 | 0.00 | 0.00 | 89 | 1021.4 |
| 20260902034545 | 49 | 271 | 0.0 | 0.0 | 0.00 | 0.00 | 0.00 | 89 | 1021.5 |
| 20260902033044 | 49 | 271 | 0.0 | 0.0 | 0.00 | 0.00 | 0.00 | 89 | 1021.4 |
| 20260902031542 | 49 | 271 | 0.0 | 0.0 | 0.00 | 0.00 | 0.00 | 88 | 1021.5 |
| 20260902030205 | 51 | 0.0 | 0.0 | 0.00 | 0.00 | 0.00 | 88 | 1022.3 | |
| 20260902030041 | 50 | 271 | 0.0 | 0.0 | 0.00 | 0.00 | 0.00 | 88 | 1021.4 |
| 20260902024540 | 50 | 271 | 0.0 | 0.0 | 0.00 | 0.00 | 0.00 | 88 | 1021.4 |
| 20260902023038 | 51 | 271 | 0.0 | 0.0 | 0.00 | 0.00 | 0.00 | 88 | 1021.6 |
| 20260902021543 | 51 | 271 | 0.0 | 0.0 | 0.00 | 0.00 | 0.00 | 88 | 1021.6 |
| 20260902020117 | 52 | 0.0 | 0.0 | 0.00 | 0.00 | 0.00 | 88 | 1022.7 | |
| 20260902020037 | 51 | 271 | 0.0 | 0.0 | 0.00 | 0.00 | 0.00 | 88 | 1021.6 |
| 20260902014540 | 51 | 271 | 0.0 | 0.0 | 0.00 | 0.00 | 0.00 | 87 | 1021.7 |
| 20260902013034 | 52 | 271 | 0.0 | 0.0 | 0.00 | 0.00 | 0.00 | 87 | 1021.7 |